status,avgMeasuredTime,avgSpeed,extID,medianMeasuredTime,TIMESTAMP,vehicleCount,_id,REPORT_ID
OK,126,18,647,126,2014-08-01T07:50:00,1,20746199,184945
OK,126,18,647,126,2014-08-01T07:55:00,0,20746371,184945
OK,126,18,647,126,2014-08-01T08:00:00,0,20746702,184945
OK,83,28,647,83,2014-08-01T08:05:00,1,20747151,184945
OK,83,28,647,83,2014-08-01T08:10:00,1,20747524,184945
OK,83,28,647,83,2014-08-01T08:15:00,0,20747973,184945
OK,48,49,647,48,2014-08-01T08:20:00,1,20748422,184945
OK,63,37,647,63,2014-08-01T08:25:00,1,20748871,184945
OK,63,37,647,63,2014-08-01T08:30:00,1,20749320,184945
OK,63,37,647,63,2014-08-01T08:35:00,0,20749769,184945
OK,63,37,647,63,2014-08-01T08:40:00,0,20750218,184945
OK,121,19,647,121,2014-08-01T08:45:00,1,20750667,184945
OK,121,19,647,121,2014-08-01T08:50:00,0,20751116,184945
OK,121,19,647,121,2014-08-01T08:55:00,0,20751565,184945
OK,121,19,647,121,2014-08-01T09:00:00,0,20752014,184945
OK,121,19,647,121,2014-08-01T09:05:00,0,20752463,184945
OK,121,19,647,121,2014-08-01T09:10:00,0,20752912,184945
OK,121,19,647,121,2014-08-01T09:15:00,0,20753361,184945
OK,121,19,647,121,2014-08-01T09:20:00,0,20753810,184945
OK,121,19,647,121,2014-08-01T09:25:00,0,20754259,184945
OK,121,19,647,121,2014-08-01T09:30:00,0,20754708,184945
OK,121,19,647,121,2014-08-01T09:35:00,0,20755157,184945
OK,121,19,647,121,2014-08-01T09:40:00,0,20755606,184945
OK,121,19,647,121,2014-08-01T09:45:00,0,20756055,184945
OK,121,19,647,121,2014-08-01T09:50:00,0,20756504,184945
OK,121,19,647,121,2014-08-01T09:55:00,0,20756953,184945
OK,121,19,647,121,2014-08-01T10:00:00,0,20757402,184945
OK,121,19,647,121,2014-08-01T10:05:00,0,20757851,184945
OK,121,19,647,121,2014-08-01T10:10:00,0,20758300,184945
OK,102,23,647,102,2014-08-01T10:15:00,1,20758749,184945
OK,96,24,647,96,2014-08-01T10:20:00,2,20759198,184945
OK,90,26,647,90,2014-08-01T10:25:00,1,20759647,184945
OK,90,26,647,90,2014-08-01T10:30:00,0,20760096,184945
OK,90,26,647,90,2014-08-01T10:35:00,0,20760545,184945
OK,90,26,647,90,2014-08-01T10:40:00,0,20760994,184945
OK,90,26,647,90,2014-08-01T10:45:00,0,20761443,184945
OK,82,28,647,82,2014-08-01T10:50:00,1,20761892,184945
OK,82,28,647,82,2014-08-01T10:55:00,1,20762341,184945
OK,82,28,647,82,2014-08-01T11:00:00,0,20762790,184945
OK,82,28,647,82,2014-08-01T11:05:00,0,20763239,184945
OK,82,28,647,82,2014-08-01T11:10:00,0,20763688,184945
OK,82,28,647,82,2014-08-01T11:15:00,0,20764137,184945
OK,82,28,647,82,2014-08-01T11:20:00,0,20764585,184945
OK,82,28,647,82,2014-08-01T11:25:00,0,20765034,184945
OK,108,21,647,108,2014-08-01T11:30:00,1,20765483,184945
OK,108,21,647,108,2014-08-01T11:35:00,1,20765932,184945
OK,108,21,647,108,2014-08-01T11:40:00,0,20766381,184945
OK,108,21,647,108,2014-08-01T11:45:00,0,20766830,184945
OK,97,24,647,97,2014-08-01T11:50:00,1,20767279,184945
OK,82,28,647,82,2014-08-01T11:55:00,2,20767728,184945
OK,68,34,647,68,2014-08-01T12:00:00,1,20768177,184945
OK,68,34,647,68,2014-08-01T12:05:00,0,20768626,184945
OK,68,34,647,68,2014-08-01T12:10:00,0,20769075,184945
OK,68,34,647,68,2014-08-01T12:15:00,0,20769524,184945
OK,68,34,647,68,2014-08-01T12:20:00,0,20769973,184945
OK,68,34,647,68,2014-08-01T12:25:00,0,20770422,184945
OK,68,34,647,68,2014-08-01T12:30:00,0,20770871,184945
OK,68,34,647,68,2014-08-01T12:35:00,0,20771320,184945
OK,68,34,647,68,2014-08-01T12:40:00,0,20771769,184945
OK,64,36,647,64,2014-08-01T12:45:00,1,20772218,184945
OK,64,36,647,64,2014-08-01T12:50:00,1,20772667,184945
OK,64,36,647,64,2014-08-01T12:55:00,0,20773116,184945
OK,46,51,647,46,2014-08-01T13:00:00,1,20773565,184945
OK,46,51,647,46,2014-08-01T13:05:00,1,20774014,184945
OK,126,18,647,126,2014-08-01T13:10:00,1,20774463,184945
OK,126,18,647,126,2014-08-01T13:15:00,1,20774912,184945
OK,126,18,647,126,2014-08-01T13:20:00,0,20775361,184945
OK,126,18,647,126,2014-08-01T13:25:00,0,20775810,184945
OK,126,18,647,126,2014-08-01T13:30:00,0,20776259,184945
OK,126,18,647,126,2014-08-01T13:35:00,0,20776708,184945
OK,126,18,647,126,2014-08-01T13:40:00,0,20777157,184945
OK,126,18,647,126,2014-08-01T13:45:00,0,20777606,184945
OK,126,18,647,126,2014-08-01T13:50:00,0,20778055,184945
OK,126,18,647,126,2014-08-01T13:55:00,0,20778504,184945
OK,126,18,647,126,2014-08-01T14:00:00,0,20778953,184945
OK,126,18,647,126,2014-08-01T14:05:00,0,20779402,184945
OK,126,18,647,126,2014-08-01T14:10:00,0,20779851,184945
OK,126,18,647,126,2014-08-01T14:15:00,0,20780300,184945
OK,126,18,647,126,2014-08-01T14:20:00,0,20780749,184945
OK,126,18,647,126,2014-08-01T14:25:00,0,20781198,184945
OK,126,18,647,126,2014-08-01T14:30:00,0,20781647,184945
OK,126,18,647,126,2014-08-01T14:35:00,0,20782096,184945
OK,126,18,647,126,2014-08-01T14:40:00,0,20782545,184945
OK,66,35,647,66,2014-08-01T14:45:00,1,20782994,184945
OK,66,35,647,66,2014-08-01T14:50:00,1,20783443,184945
OK,66,35,647,66,2014-08-01T14:55:00,0,20783892,184945
OK,55,42,647,55,2014-08-01T15:00:00,1,20784341,184945
OK,55,42,647,55,2014-08-01T15:05:00,1,20784790,184945
OK,55,42,647,55,2014-08-01T15:10:00,0,20785239,184945
OK,55,42,647,55,2014-08-01T15:15:00,0,20785688,184945
OK,55,42,647,55,2014-08-01T15:20:00,0,20786137,184945
OK,55,42,647,55,2014-08-01T15:25:00,0,20786586,184945
OK,55,42,647,55,2014-08-01T15:30:00,0,20787035,184945
OK,55,42,647,55,2014-08-01T15:35:00,0,20787484,184945
OK,55,42,647,55,2014-08-01T15:40:00,0,20787933,184945
OK,55,42,647,55,2014-08-01T15:45:00,0,20788382,184945
OK,55,42,647,55,2014-08-01T15:50:00,0,20788831,184945
OK,55,42,647,55,2014-08-01T15:55:00,0,20789280,184945
OK,54,43,647,54,2014-08-01T16:00:00,1,20789729,184945
OK,54,43,647,54,2014-08-01T16:05:00,2,20790178,184945
OK,55,42,647,55,2014-08-01T16:10:00,1,20790627,184945
OK,55,42,647,55,2014-08-01T16:15:00,0,20791076,184945
OK,55,42,647,55,2014-08-01T16:20:00,0,20791525,184945
OK,55,42,647,55,2014-08-01T16:25:00,0,20791974,184945
OK,55,42,647,55,2014-08-01T16:30:00,0,20792423,184945
OK,55,42,647,55,2014-08-01T16:35:00,0,20792872,184945
OK,55,42,647,55,2014-08-01T16:40:00,0,20793321,184945
OK,55,42,647,55,2014-08-01T16:45:00,0,20793770,184945
OK,55,42,647,55,2014-08-01T16:50:00,0,20794219,184945
OK,55,42,647,55,2014-08-01T16:55:00,0,20794668,184945
OK,55,42,647,55,2014-08-01T17:00:00,0,20795117,184945
OK,55,42,647,55,2014-08-01T17:05:00,0,20795566,184945
OK,55,42,647,55,2014-08-01T17:10:00,0,20796015,184945
OK,55,42,647,55,2014-08-01T17:15:00,0,20796464,184945
OK,55,42,647,55,2014-08-01T17:20:00,0,20796913,184945
OK,55,42,647,55,2014-08-01T17:25:00,0,20797362,184945
OK,55,42,647,55,2014-08-01T17:30:00,0,20797811,184945
OK,55,42,647,55,2014-08-01T17:35:00,0,20798260,184945
OK,55,42,647,55,2014-08-01T17:40:00,0,20798709,184945
OK,55,42,647,55,2014-08-01T17:45:00,0,20799158,184945
OK,55,42,647,55,2014-08-01T17:50:00,0,20799607,184945
OK,55,42,647,55,2014-08-01T17:55:00,0,20800056,184945
OK,55,42,647,55,2014-08-01T18:00:00,0,20800505,184945
OK,55,42,647,55,2014-08-01T18:05:00,0,20800954,184945
OK,55,42,647,55,2014-08-01T18:10:00,0,20801403,184945
OK,55,42,647,55,2014-08-01T18:15:00,0,20801852,184945
OK,55,42,647,55,2014-08-01T18:20:00,0,20802301,184945
OK,55,42,647,55,2014-08-01T18:25:00,0,20802750,184945
OK,55,42,647,55,2014-08-01T18:30:00,0,20803199,184945
OK,55,42,647,55,2014-08-01T18:35:00,0,20803648,184945
OK,108,21,647,108,2014-08-01T18:40:00,1,20804097,184945
OK,108,21,647,108,2014-08-01T18:45:00,1,20804546,184945
OK,108,21,647,108,2014-08-01T18:50:00,0,20804995,184945
OK,108,21,647,108,2014-08-01T18:55:00,0,20805444,184945
OK,108,21,647,108,2014-08-01T19:00:00,0,20805893,184945
OK,108,21,647,108,2014-08-01T19:05:00,0,20806342,184945
OK,108,21,647,108,2014-08-01T19:10:00,0,20806791,184945
OK,108,21,647,108,2014-08-01T19:15:00,0,20807240,184945
OK,108,21,647,108,2014-08-01T19:20:00,0,20807689,184945
OK,108,21,647,108,2014-08-01T19:25:00,0,20808138,184945
OK,108,21,647,108,2014-08-01T19:30:00,0,20808587,184945
OK,108,21,647,108,2014-08-01T19:35:00,0,20809036,184945
OK,85,27,647,85,2014-08-01T19:40:00,1,20809485,184945
OK,85,27,647,85,2014-08-01T19:45:00,1,20809934,184945
OK,85,27,647,85,2014-08-01T19:50:00,0,20810383,184945
OK,85,27,647,85,2014-08-01T19:55:00,0,20810832,184945
OK,85,27,647,85,2014-08-01T20:05:00,0,20811452,184945
OK,85,27,647,85,2014-08-01T20:10:00,0,20811654,184945
OK,85,27,647,85,2014-08-01T20:15:00,0,20811861,184945
OK,62,38,647,62,2014-08-01T20:20:00,1,20812069,184945
OK,62,38,647,62,2014-08-01T20:25:00,0,20812289,184945
OK,62,38,647,62,2014-08-01T20:30:00,0,20812502,184945
OK,62,38,647,62,2014-08-01T20:35:00,0,20812712,184945
OK,62,38,647,62,2014-08-01T20:40:00,0,20812913,184945
OK,62,38,647,62,2014-08-01T20:45:00,0,20813120,184945
OK,62,38,647,62,2014-08-01T20:50:00,0,20813331,184945
OK,62,38,647,62,2014-08-01T20:55:00,0,20813561,184945
OK,52,45,647,52,2014-08-01T21:00:00,1,20813799,184945
OK,52,45,647,52,2014-08-01T21:05:00,0,20813976,184945
OK,52,45,647,52,2014-08-01T21:10:00,0,20814216,184945
OK,52,45,647,52,2014-08-01T21:15:00,0,20814412,184945
OK,52,45,647,52,2014-08-01T21:20:00,0,20814618,184945
OK,52,45,647,52,2014-08-01T21:25:00,0,20814848,184945
OK,52,45,647,52,2014-08-01T21:30:00,0,20815123,184945
OK,52,45,647,52,2014-08-01T21:35:00,0,20815357,184945
OK,52,45,647,52,2014-08-01T21:40:00,0,20815580,184945
OK,52,45,647,52,2014-08-01T21:45:00,0,20815817,184945
OK,52,45,647,52,2014-08-01T21:50:00,0,20816058,184945
OK,52,45,647,52,2014-08-01T21:55:00,0,20816293,184945
OK,52,45,647,52,2014-08-01T22:00:00,0,20816561,184945
OK,52,45,647,52,2014-08-01T22:05:00,0,20817010,184945
OK,52,45,647,52,2014-08-01T22:10:00,0,20817332,184945
OK,52,45,647,52,2014-08-01T22:15:00,0,20817761,184945
OK,52,45,647,52,2014-08-01T22:20:00,0,20818051,184945
OK,52,45,647,52,2014-08-01T22:25:00,0,20818367,184945
OK,52,45,647,52,2014-08-01T22:30:00,0,20818701,184945
OK,52,45,647,52,2014-08-01T22:35:00,0,20819006,184945
OK,52,45,647,52,2014-08-01T22:40:00,0,20819185,184945
OK,52,45,647,52,2014-08-01T22:45:00,0,20819473,184945
OK,52,45,647,52,2014-08-01T22:50:00,0,20819708,184945
OK,52,45,647,52,2014-08-01T22:55:00,0,20819961,184945
OK,52,45,647,52,2014-08-01T23:00:00,0,20820137,184945
OK,52,45,647,52,2014-08-01T23:05:00,0,20820390,184945
OK,52,45,647,52,2014-08-01T23:10:00,0,20820620,184945
OK,52,45,647,52,2014-08-01T23:15:00,0,20820808,184945
OK,52,45,647,52,2014-08-01T23:20:00,0,20821061,184945
OK,52,45,647,52,2014-08-01T23:25:00,0,20821237,184945
OK,78,30,647,78,2014-08-01T23:30:00,1,20821462,184945
OK,78,30,647,78,2014-08-01T23:35:00,0,20821707,184945
OK,78,30,647,78,2014-08-01T23:40:00,0,20821886,184945
OK,78,30,647,78,2014-08-01T23:45:00,0,20822109,184945
OK,78,30,647,78,2014-08-01T23:50:00,0,20822376,184945
OK,78,30,647,78,2014-08-01T23:55:00,0,20822702,184945
OK,78,30,647,78,2014-08-02T00:00:00,0,20823000,184945
OK,78,30,647,78,2014-08-02T00:05:00,0,20823449,184945
OK,78,30,647,78,2014-08-02T00:10:00,0,20823898,184945
OK,78,30,647,78,2014-08-02T00:15:00,0,20824347,184945
OK,78,30,647,78,2014-08-02T00:20:00,0,20824796,184945
OK,78,30,647,78,2014-08-02T00:25:00,0,20825245,184945
OK,78,30,647,78,2014-08-02T00:30:00,0,20825694,184945
OK,78,30,647,78,2014-08-02T00:35:00,0,20826143,184945
OK,78,30,647,78,2014-08-02T00:40:00,0,20826592,184945
OK,78,30,647,78,2014-08-02T00:45:00,0,20827041,184945
OK,78,30,647,78,2014-08-02T00:50:00,0,20827490,184945
OK,78,30,647,78,2014-08-02T00:55:00,0,20827939,184945
OK,78,30,647,78,2014-08-02T01:00:00,0,20828388,184945
OK,78,30,647,78,2014-08-02T01:05:00,0,20828837,184945
OK,78,30,647,78,2014-08-02T01:10:00,0,20829286,184945
OK,78,30,647,78,2014-08-02T01:15:00,0,20829735,184945
OK,78,30,647,78,2014-08-02T01:20:00,0,20830184,184945
OK,78,30,647,78,2014-08-02T01:25:00,0,20830633,184945
OK,78,30,647,78,2014-08-02T01:30:00,0,20831082,184945
OK,78,30,647,78,2014-08-02T01:35:00,0,20831531,184945
OK,78,30,647,78,2014-08-02T01:40:00,0,20831980,184945
OK,78,30,647,78,2014-08-02T01:45:00,0,20832429,184945
OK,78,30,647,78,2014-08-02T01:50:00,0,20832878,184945
OK,78,30,647,78,2014-08-02T01:55:00,0,20833327,184945
OK,78,30,647,78,2014-08-02T02:00:00,0,20833776,184945
OK,78,30,647,78,2014-08-02T02:05:00,0,20834225,184945
OK,78,30,647,78,2014-08-02T02:10:00,0,20834674,184945
OK,78,30,647,78,2014-08-02T02:15:00,0,20835123,184945
OK,78,30,647,78,2014-08-02T02:20:00,0,20835572,184945
OK,78,30,647,78,2014-08-02T02:25:00,0,20836021,184945
OK,78,30,647,78,2014-08-02T02:30:00,0,20836470,184945
OK,78,30,647,78,2014-08-02T02:35:00,0,20836919,184945
OK,78,30,647,78,2014-08-02T02:40:00,0,20837368,184945
OK,78,30,647,78,2014-08-02T02:45:00,0,20837817,184945
OK,78,30,647,78,2014-08-02T02:50:00,0,20838266,184945
OK,78,30,647,78,2014-08-02T02:55:00,0,20838715,184945
OK,78,30,647,78,2014-08-02T03:00:00,0,20839164,184945
OK,78,30,647,78,2014-08-02T03:05:00,0,20839613,184945
OK,78,30,647,78,2014-08-02T03:10:00,0,20840062,184945
OK,78,30,647,78,2014-08-02T03:15:00,0,20840511,184945
OK,78,30,647,78,2014-08-02T03:20:00,0,20840960,184945
OK,78,30,647,78,2014-08-02T03:25:00,0,20841409,184945
OK,78,30,647,78,2014-08-02T03:30:00,0,20841858,184945
OK,78,30,647,78,2014-08-02T03:35:00,0,20842307,184945
OK,78,30,647,78,2014-08-02T03:40:00,0,20842756,184945
OK,78,30,647,78,2014-08-02T03:45:00,0,20843205,184945
OK,78,30,647,78,2014-08-02T03:50:00,0,20843654,184945
OK,78,30,647,78,2014-08-02T03:55:00,0,20844103,184945
OK,78,30,647,78,2014-08-02T04:00:00,0,20844552,184945
OK,78,30,647,78,2014-08-02T04:05:00,0,20844683,184945
OK,78,30,647,78,2014-08-02T04:10:00,0,20845013,184945
OK,78,30,647,78,2014-08-02T04:15:00,0,20845193,184945
OK,78,30,647,78,2014-08-02T04:20:00,0,20845549,184945
OK,78,30,647,78,2014-08-02T04:25:00,0,20845917,184945
OK,78,30,647,78,2014-08-02T04:30:00,0,20846105,184945
OK,78,30,647,78,2014-08-02T04:35:00,0,20846472,184945
OK,78,30,647,78,2014-08-02T04:40:00,0,20846855,184945
OK,78,30,647,78,2014-08-02T04:45:00,0,20847114,184945
OK,78,30,647,78,2014-08-02T04:50:00,0,20847480,184945
OK,78,30,647,78,2014-08-02T04:55:00,0,20847837,184945
OK,78,30,647,78,2014-08-02T05:00:00,0,20848197,184945
OK,78,30,647,78,2014-08-02T05:05:00,0,20848362,184945
OK,78,30,647,78,2014-08-02T05:10:00,0,20848715,184945
OK,78,30,647,78,2014-08-02T05:15:00,0,20848907,184945
OK,78,30,647,78,2014-08-02T05:20:00,0,20849251,184945
OK,78,30,647,78,2014-08-02T05:25:00,0,20849569,184945
OK,78,30,647,78,2014-08-02T05:30:00,0,20849776,184945
OK,78,30,647,78,2014-08-02T05:35:00,0,20850048,184945
OK,78,30,647,78,2014-08-02T05:40:00,0,20850341,184945
OK,78,30,647,78,2014-08-02T05:45:00,0,20850642,184945
OK,78,30,647,78,2014-08-02T05:50:00,0,20851000,184945
OK,78,30,647,78,2014-08-02T05:55:00,0,20851254,184945
OK,78,30,647,78,2014-08-02T06:00:00,0,20851557,184945
OK,78,30,647,78,2014-08-02T06:05:00,0,20852006,184945
OK,78,30,647,78,2014-08-02T06:10:00,0,20852455,184945
OK,78,30,647,78,2014-08-02T06:15:00,0,20852904,184945
OK,78,30,647,78,2014-08-02T06:20:00,0,20853353,184945
OK,78,30,647,78,2014-08-02T06:25:00,0,20853802,184945
OK,78,30,647,78,2014-08-02T06:30:00,0,20854251,184945
OK,78,30,647,78,2014-08-02T06:35:00,0,20854700,184945
OK,78,30,647,78,2014-08-02T06:40:00,0,20855149,184945
OK,78,30,647,78,2014-08-02T06:45:00,0,20855598,184945
OK,78,30,647,78,2014-08-02T06:50:00,0,20856047,184945
OK,78,30,647,78,2014-08-02T06:55:00,0,20856496,184945
OK,78,30,647,78,2014-08-02T07:00:00,0,20856945,184945
OK,78,30,647,78,2014-08-02T07:05:00,0,20857394,184945
OK,78,30,647,78,2014-08-02T07:10:00,0,20857843,184945
OK,78,30,647,78,2014-08-02T07:15:00,0,20858292,184945
OK,78,30,647,78,2014-08-02T07:20:00,0,20858741,184945
OK,78,30,647,78,2014-08-02T07:25:00,0,20859190,184945
OK,78,30,647,78,2014-08-02T07:30:00,0,20859639,184945
OK,78,30,647,78,2014-08-02T07:35:00,0,20860088,184945
OK,78,30,647,78,2014-08-02T07:40:00,0,20860537,184945
OK,78,30,647,78,2014-08-02T07:45:00,0,20860986,184945
OK,318,7,647,318,2014-08-02T07:50:00,3,20861435,184945
OK,318,7,647,318,2014-08-02T07:55:00,1,20861884,184945
OK,318,7,647,318,2014-08-02T08:00:00,0,20862333,184945
OK,318,7,647,318,2014-08-02T08:05:00,0,20862782,184945
OK,318,7,647,318,2014-08-02T08:10:00,0,20863231,184945
OK,318,7,647,318,2014-08-02T08:15:00,0,20863680,184945
OK,318,7,647,318,2014-08-02T08:20:00,0,20864129,184945
OK,318,7,647,318,2014-08-02T08:25:00,0,20864578,184945
OK,121,19,647,121,2014-08-02T08:30:00,1,20865027,184945
OK,121,19,647,121,2014-08-02T08:35:00,1,20865476,184945
OK,494,4,647,494,2014-08-02T08:40:00,1,20865925,184945
OK,494,4,647,494,2014-08-02T08:45:00,1,20866374,184945
OK,494,4,647,494,2014-08-02T08:50:00,0,20866823,184945
OK,494,4,647,494,2014-08-02T08:55:00,0,20867272,184945
OK,494,4,647,494,2014-08-02T09:00:00,0,20867721,184945
OK,494,4,647,494,2014-08-02T09:05:00,0,20868170,184945
OK,114,20,647,114,2014-08-02T09:10:00,1,20868619,184945
OK,114,20,647,114,2014-08-02T09:15:00,1,20869068,184945
OK,114,20,647,114,2014-08-02T09:20:00,0,20869517,184945
OK,114,20,647,114,2014-08-02T09:25:00,0,20869966,184945
OK,114,20,647,114,2014-08-02T09:30:00,0,20870415,184945
OK,114,20,647,114,2014-08-02T09:35:00,0,20870864,184945
OK,114,20,647,114,2014-08-02T09:40:00,0,20871313,184945
OK,114,20,647,114,2014-08-02T09:45:00,0,20871762,184945
OK,114,20,647,114,2014-08-02T09:50:00,0,20872211,184945
OK,114,20,647,114,2014-08-02T09:55:00,0,20872660,184945
OK,114,20,647,114,2014-08-02T10:00:00,0,20873109,184945
OK,114,20,647,114,2014-08-02T10:05:00,0,20873558,184945
OK,114,20,647,114,2014-08-02T10:10:00,0,20874007,184945
OK,114,20,647,114,2014-08-02T10:15:00,0,20874456,184945
OK,114,20,647,114,2014-08-02T10:20:00,0,20874905,184945
OK,114,20,647,114,2014-08-02T10:25:00,0,20875354,184945
OK,114,20,647,114,2014-08-02T10:30:00,0,20875803,184945
OK,114,20,647,114,2014-08-02T10:35:00,0,20876252,184945
OK,114,20,647,114,2014-08-02T10:40:00,0,20876701,184945
OK,114,20,647,114,2014-08-02T10:45:00,0,20877150,184945
OK,114,20,647,114,2014-08-02T10:50:00,0,20877599,184945
OK,83,28,647,83,2014-08-02T10:55:00,1,20878048,184945
OK,83,28,647,83,2014-08-02T11:00:00,1,20878497,184945
OK,69,34,647,69,2014-08-02T11:05:00,2,20878946,184945
OK,100,23,647,100,2014-08-02T11:10:00,4,20879395,184945
OK,117,20,647,117,2014-08-02T11:15:00,2,20879844,184945
OK,117,20,647,117,2014-08-02T11:20:00,0,20880293,184945
OK,117,20,647,117,2014-08-02T11:25:00,0,20880742,184945
OK,117,20,647,117,2014-08-02T11:30:00,0,20881191,184945
OK,117,20,647,117,2014-08-02T11:35:00,0,20881640,184945
OK,41,57,647,41,2014-08-02T11:40:00,1,20882089,184945
OK,41,57,647,41,2014-08-02T11:45:00,1,20882538,184945
OK,41,57,647,41,2014-08-02T11:50:00,0,20882987,184945
OK,41,57,647,41,2014-08-02T11:55:00,0,20883436,184945
OK,41,57,647,41,2014-08-02T12:00:00,0,20883885,184945
OK,41,57,647,41,2014-08-02T12:05:00,0,20884334,184945
OK,41,57,647,41,2014-08-02T12:10:00,0,20884783,184945
OK,41,57,647,41,2014-08-02T12:15:00,0,20885232,184945
OK,41,57,647,41,2014-08-02T12:20:00,0,20885681,184945
OK,41,57,647,41,2014-08-02T12:25:00,0,20886130,184945
OK,41,57,647,41,2014-08-02T12:30:00,0,20886579,184945
OK,41,57,647,41,2014-08-02T12:35:00,0,20887028,184945
OK,41,57,647,41,2014-08-02T12:40:00,0,20887477,184945
OK,41,57,647,41,2014-08-02T12:45:00,0,20887926,184945
OK,41,57,647,41,2014-08-02T12:50:00,0,20888375,184945
OK,200,11,647,200,2014-08-02T12:55:00,1,20888824,184945
OK,200,11,647,200,2014-08-02T13:00:00,1,20889273,184945
OK,200,11,647,200,2014-08-02T13:05:00,0,20889722,184945
OK,200,11,647,200,2014-08-02T13:10:00,0,20890171,184945
OK,200,11,647,200,2014-08-02T13:15:00,0,20890620,184945
OK,200,11,647,200,2014-08-02T13:20:00,0,20891069,184945
OK,86,27,647,86,2014-08-02T13:25:00,1,20891518,184945
OK,86,27,647,86,2014-08-02T13:30:00,0,20891967,184945
OK,86,27,647,86,2014-08-02T13:35:00,0,20892416,184945
OK,86,27,647,86,2014-08-02T13:40:00,0,20892865,184945
OK,86,27,647,86,2014-08-02T13:45:00,0,20893314,184945
OK,81,29,647,81,2014-08-02T13:50:00,2,20893763,184945
OK,81,29,647,81,2014-08-02T13:55:00,0,20894212,184945
OK,81,29,647,81,2014-08-02T14:00:00,0,20894661,184945
OK,130,18,647,130,2014-08-02T14:05:00,1,20895110,184945
OK,130,18,647,130,2014-08-02T14:10:00,0,20895559,184945
OK,130,18,647,130,2014-08-02T14:15:00,0,20896008,184945
OK,130,18,647,130,2014-08-02T14:20:00,0,20896457,184945
OK,130,18,647,130,2014-08-02T14:25:00,0,20896906,184945
OK,130,18,647,130,2014-08-02T14:30:00,0,20897355,184945
OK,130,18,647,130,2014-08-02T14:35:00,0,20897804,184945
OK,130,18,647,130,2014-08-02T14:40:00,0,20898253,184945
OK,130,18,647,130,2014-08-02T14:45:00,0,20898702,184945
OK,130,18,647,130,2014-08-02T14:50:00,0,20899151,184945
OK,130,18,647,130,2014-08-02T14:55:00,0,20899600,184945
OK,130,18,647,130,2014-08-02T15:00:00,0,20900049,184945
OK,130,18,647,130,2014-08-02T15:05:00,0,20900498,184945
OK,130,18,647,130,2014-08-02T15:10:00,0,20900947,184945
OK,130,18,647,130,2014-08-02T15:15:00,0,20901396,184945
OK,130,18,647,130,2014-08-02T15:20:00,0,20901845,184945
OK,130,18,647,130,2014-08-02T15:25:00,0,20902294,184945
OK,130,18,647,130,2014-08-02T15:30:00,0,20902743,184945
OK,130,18,647,130,2014-08-02T15:35:00,0,20903192,184945
OK,130,18,647,130,2014-08-02T15:40:00,0,20903641,184945
OK,130,18,647,130,2014-08-02T15:45:00,0,20904090,184945
OK,130,18,647,130,2014-08-02T15:50:00,0,20904539,184945
OK,130,18,647,130,2014-08-02T15:55:00,0,20904988,184945
OK,130,18,647,130,2014-08-02T16:00:00,0,20905437,184945
OK,130,18,647,130,2014-08-02T16:05:00,0,20905886,184945
OK,130,18,647,130,2014-08-02T16:10:00,0,20906335,184945
OK,130,18,647,130,2014-08-02T16:15:00,0,20906784,184945
OK,130,18,647,130,2014-08-02T16:20:00,0,20907233,184945
OK,130,18,647,130,2014-08-02T16:25:00,0,20907682,184945
OK,122,19,647,122,2014-08-02T16:30:00,1,20908131,184945
OK,122,19,647,122,2014-08-02T16:35:00,0,20908580,184945
OK,122,19,647,122,2014-08-02T16:40:00,0,20909029,184945
OK,122,19,647,122,2014-08-02T16:45:00,0,20909478,184945
OK,122,19,647,122,2014-08-02T16:50:00,0,20909927,184945
OK,122,19,647,122,2014-08-02T16:55:00,0,20910376,184945
OK,122,19,647,122,2014-08-02T17:00:00,0,20910825,184945
OK,122,19,647,122,2014-08-02T17:05:00,0,20911274,184945
OK,122,19,647,122,2014-08-02T17:10:00,0,20911723,184945
OK,122,19,647,122,2014-08-02T17:15:00,0,20912172,184945
OK,122,19,647,122,2014-08-02T17:20:00,0,20912621,184945
OK,122,19,647,122,2014-08-02T17:25:00,0,20913070,184945
OK,130,18,647,130,2014-08-02T17:30:00,1,20913519,184945
OK,130,18,647,130,2014-08-02T17:35:00,1,20913968,184945
OK,94,25,647,94,2014-08-02T17:40:00,1,20914417,184945
OK,94,25,647,94,2014-08-02T17:45:00,0,20914866,184945
OK,94,25,647,94,2014-08-02T17:50:00,0,20915315,184945
OK,94,25,647,94,2014-08-02T17:55:00,0,20915764,184945
OK,94,25,647,94,2014-08-02T18:00:00,0,20916213,184945
OK,94,25,647,94,2014-08-02T18:05:00,0,20916662,184945
OK,94,25,647,94,2014-08-02T18:10:00,0,20917111,184945
OK,94,25,647,94,2014-08-02T18:15:00,0,20917560,184945
OK,94,25,647,94,2014-08-02T18:20:00,0,20918009,184945
OK,94,25,647,94,2014-08-02T18:25:00,0,20918458,184945
OK,94,25,647,94,2014-08-02T18:30:00,0,20918907,184945
OK,94,25,647,94,2014-08-02T18:35:00,0,20919356,184945
OK,94,25,647,94,2014-08-02T18:40:00,0,20919805,184945
OK,94,25,647,94,2014-08-02T18:45:00,0,20920254,184945
OK,90,26,647,90,2014-08-02T18:50:00,1,20920703,184945
OK,90,26,647,90,2014-08-02T18:55:00,1,20921152,184945
OK,90,26,647,90,2014-08-02T19:00:00,0,20921601,184945
OK,90,26,647,90,2014-08-02T19:05:00,0,20922050,184945
OK,124,19,647,124,2014-08-02T19:10:00,2,20922499,184945
OK,124,19,647,124,2014-08-02T19:15:00,2,20922948,184945
OK,124,19,647,124,2014-08-02T19:20:00,0,20923397,184945
OK,122,19,647,122,2014-08-02T19:25:00,1,20923846,184945
OK,122,19,647,122,2014-08-02T19:30:00,1,20924295,184945
OK,122,19,647,122,2014-08-02T19:35:00,0,20924744,184945